Panchvalley Pas 59385 Schedule, Route, Map - Indore to Chhindwara train
Must See India - Best Travel Guide to India
Home   |   Login   |   Register   |   Contact Us
 

Panchvalley Pas (59385)

Print
     

Service Days:

All Days

Classes:

AC 3 Tier (3A), First Class (FC), Sleeper (SL)

Duration:

15h 20m

Station Arrival Departure Stop Time Distance Day
1 Indore (INDB) starts 01:10 pm Starts 0 km 1
2 Dewas (DWX) 01:54 pm 01:56 pm 2 min 39 km 1
3 Ranyal jasmiya (RCJ) 02:12 pm 02:14 pm 2 min 60 km 1
4 Maksi (MKC) 02:51 pm 02:53 pm 2 min 75 km 1
5 Berchha (BCH) 03:09 pm 03:11 pm 2 min 95 km 1
6 Akodia (AKD) 03:35 pm 03:37 pm 2 min 124 km 1
7 Shujalpur (SJP) 03:50 pm 03:52 pm 2 min 138 km 1
8 Kalapipal (KPP) 04:04 pm 04:06 pm 2 min 150 km 1
9 Sehore (SEH) 04:30 pm 04:32 pm 2 min 179 km 1
10 Bairagarh (BIH) 05:26 pm 05:28 pm 2 min 208 km 1
11 Bhopal (BPL) 06:00 pm 06:15 pm 15 min 218 km 1
12 Habibganj (HBJ) 06:25 pm 06:27 pm 2 min 224 km 1
13 Misrod (MSO) 06:34 pm 06:36 pm 2 min 230 km 1
14 Mandi Dip (MDDP) 06:46 pm 06:48 pm 2 min 240 km 1
15 Obaidulla Ganj (ODG) 06:58 pm 07:00 pm 2 min 254 km 1
16 Barkhera (BKA) 07:10 pm 07:12 pm 2 min 265 km 1
17 Budni (BNI) 07:43 pm 07:45 pm 2 min 285 km 1
18 Hoshangabad (HBD) 07:53 pm 07:55 pm 2 min 292 km 1
19 Powerkheda (PRKD) 08:03 pm 08:05 pm 2 min 301 km 1
20 Itarsi (ET) 08:40 pm 08:45 pm 5 min 310 km 1
21 Kiratgarh (KRTH) 09:18 pm 09:20 pm 2 min 320 km 1
22 Taku (TAKU) 09:38 pm 09:40 pm 2 min 332 km 1
23 Kala Akhar (KQE) 09:53 pm 09:55 pm 2 min 343 km 1
24 Dhodra Mohar (DOH) 10:13 pm 10:15 pm 2 min 357 km 1
25 Barbatpur (BBTR) 10:33 pm 10:35 pm 2 min 368 km 1
26 Ghoradongri (GDYA) 10:43 pm 10:45 pm 2 min 380 km 1
27 Maramjhiri (MJY) 11:18 pm 11:20 pm 2 min 408 km 1
28 Betul (BZU) 11:33 pm 11:35 pm 2 min 416 km 1
29 Malkapur Road (MALK) 11:43 pm 11:45 pm 2 min 423 km 1
30 Barsali (BYS) 11:53 pm 11:55 pm 2 min 429 km 1
31 Amla Jn (AMLA) 12:30 am 01:10 am 40 min 439 km 2
32 Jambara (JMV) 01:31 am 01:33 am 2 min 453 km 2
33 Barchi Road (BCRD) 01:41 am 01:43 am 2 min 459 km 2
34 Bordhal (BXY) 01:49 am 01:51 am 2 min 466 km 2
35 Barelipur (BQM) 02:00 am 02:02 am 2 min 476 km 2
36 Nawagaon (NVG) 02:12 am 02:14 am 2 min 482 km 2
37 Morkadhana (MKDN) 02:24 am 02:26 am 2 min 491 km 2
38 Hirdagarh (HRG) 02:30 am 02:32 am 2 min 497 km 2
39 Junnor Deo (JNO) 02:45 am 02:47 am 2 min 507 km 2
40 Palachauri (PCLI) 02:59 am 03:01 am 2 min 515 km 2
41 Iklehra (IKR) 03:08 am 03:10 am 2 min 519 km 2
42 Parasia (PUX) 03:19 am 03:21 am 2 min 526 km 2
43 Khirsadoh Jn (KUX) 03:24 am 03:26 am 2 min 533 km 2
44 Gangiwara (GNW) 03:48 am 03:50 am 2 min 541 km 2
45 Chhindwara (CWA) 04:30 am ends Ends 554 km 2

 

 Click to view map

You can drag the map with your mouse, and double-click to zoom.

People who viewed this page also viewed

 
Bihar packages from Kolkata
 
Chandigarh packages from Pune
 
Corbett National Park packages from Kolkata
 
Dehradun packages from Hyderabad
 
Jaipur honeymoon packages from Bangalore
 
Katra honeymoon packages from Kolkata
 
Kovalam packages from Kolkata
 
Kovalam packages from Mumbai
 
Leh honeymoon packages from Mumbai
 
Madurai tourism
 
Srinagar honeymoon packages from Pune
 
Wayanad packages from Kolkata
 

Destinations

 
 

More

 
debug_temp: train_route : train:1705:Panchvalley Pas:Train